Flag for Canada Weather past 2 weeks in Saint John, New Brunswick, Canada

Now
63 °F

Partly sunny.


Feels Like: 63 °F
Forecast: 47 / 65 °F
Wind: 15 mph from Southwest

Location: Saint John

Current Time: Sep 18, 2014 at 12:49:41 PM

Latest Report: Sep 18, 2014 at 12:00 PM


Visibility: 15 mi

Pressure: 29.91 "Hg

Humidity: 73%

Dew point: 54 °F

Location of Saint JohnLocation

Historic Weather in Saint John — Graph

°F

Saint John temperature yesterday

Maximum temperature yesterday: 66 °F (at 2:00 PM)
Minimum temperature yesterday: 39 °F (at 7:00 AM)
Average temperature yesterday: 55 °F

Past Weeks' High & Low Weather Summary

 TemperatureHumidityPressure
High81 °F (Sep 3, 4:00 PM)100% (Sep 3, 11:00 AM)30.49 "Hg (Sep 3, 11:00 AM)
Low34 °F (Sep 9, 6:00 AM)32% (Sep 8, 2:00 PM)29.71 "Hg (Sep 6, 6:00 PM)
Average56 °F80%30.07 "Hg
* Reported Sep 3 11:00 AM — Sep 18 11:00 AM, Saint John, Weather by CustomWeather, © 2014

Note: Actual official high and low records may vary slightly from our data, if they occured in-between our weather recording intervals... More about our weather records

Advertising

Saint John weather history for previous 24 hours

 ConditionsComfort  
Time TempWeatherWind HumidityBarometerVisibility
11:00 AM
Sep 18
61 °FPartly sunny.13 mph77%29.92 "Hg15 mi
10:00 AM57 °FPartly sunny.9 mph94%29.92 "Hg15 mi
9:47 AM57 °FLow clouds.9 mph94%29.92 "Hg15 mi
9:00 AM55 °FFog.9 mph100%29.93 "Hg5 mi
8:00 AM54 °FFog.8 mph100%29.93 "Hg2 mi
7:00 AM54 °FFog.3 mph100%29.91 "Hg2 mi
6:00 AM52 °FFog.2 mph100%29.91 "Hg1 mi
5:00 AM45 °FFog.No wind100%29.92 "Hg0 mi
4:00 AM43 °FFog.No wind100%29.93 "Hg0 mi
3:00 AM43 °FFog.No wind100%29.94 "Hg0 mi
2:00 AM43 °FFog.2 mph100%29.95 "Hg15 mi
1:00 AM45 °FFog.3 mph100%29.96 "Hg15 mi
12:00 AM45 °FClear.3 mph100%29.97 "Hg15 mi
11:00 PM
Sep 17
48 °FClear.3 mph94%29.98 "Hg15 mi
10:00 PM50 °FClear.2 mph94%29.99 "Hg15 mi
9:00 PM50 °FPassing clouds.5 mph94%29.98 "Hg15 mi
8:00 PM52 °FPassing clouds.7 mph88%29.97 "Hg15 mi
7:00 PM57 °FPassing clouds.7 mph67%29.96 "Hg15 mi
6:00 PM61 °FPassing clouds.14 mph59%29.95 "Hg15 mi
5:00 PM63 °FScattered clouds.13 mph56%29.95 "Hg15 mi
4:00 PM64 °FScattered clouds.14 mph49%29.95 "Hg15 mi
3:00 PM64 °FPassing clouds.15 mph52%29.95 "Hg15 mi
2:00 PM66 °FScattered clouds.10 mph52%29.95 "Hg15 mi
1:00 PM64 °FScattered clouds.10 mph46%29.95 "Hg15 mi
12:00 PM64 °FPassing clouds.6 mph49%29.96 "Hg15 mi
Weather by CustomWeather, © 2014

See weather overviewHow to use our weather pages